Regional Weather Roundup
Issued by NWS

Home | Current Version | Previous Version | Graphics & Text | Print | Product List | Glossary On
Versions: 1 2 3 4 5 6 7 8 9 10 11 12 13 14 15 16 17 18 19 20 21 22 23 24 25 26 27 28 29 30 31 32 33 34 35 36 37 38 39 40 41 42 43 44 45 46 47 48 49 50
000
ASUS43 KFSD 221002
RWRSD

WEATHER ROUNDUP FOR SOUTH DAKOTA
NATIONAL WEATHER SERVICE SIOUX FALLS SD
500 AM CDT MON SEP 22 2014

NOTE: "FAIR" INDICATES FEW OR NO CLOUDS BELOW 12,000 FEET WITH NO
SIGNIFICANT WEATHER AND/OR OBSTRUCTIONS TO VISIBILITY.


SDZ001>005-009-010-012>017-221100-
NORTHWEST AND NORTH CENTRAL SOUTH DAKOTA

CITY           SKY/WX    TMP DP  RH WIND       PRES   REMARKS
FAITH            N/A     45  39  79 S13       30.16F
MOBRIDGE       CLEAR     46  45  96 SE7       30.18S
$$

SDZ012>016-024>037-041>051-057-063-072>074-221100-
SOUTHWEST AND SOUTH CENTRAL SOUTH DAKOTA

CITY           SKY/WX    TMP DP  RH WIND       PRES   REMARKS
RAPID CTY ARPT CLEAR     47  38  71 SE9       30.16F
PIERRE         CLEAR     49  41  74 S8        30.21S
CUSTER         MOCLDY    53  37  54 S3        30.25F
ELLSWORTH AFB  CLEAR     55  38  53 SE8       30.15F
PHILIP         CLEAR     49  39  68 SE3       30.19F
PINE RIDGE     CLOUDY    62  38  40 S18G30    30.18F
WINNER         FAIR      50  42  74 SE9       30.24F
$$

SDZ004>011-016>023-039-040-221100-
NORTHEAST SOUTH DAKOTA

CITY           SKY/WX    TMP DP  RH WIND       PRES   REMARKS
ABERDEEN       CLEAR     37  36  96 SE7       30.23S
WATERTOWN      CLEAR     44  43  96 S5        30.25S
$$

SDZ017-020-022-023-036>040-048>070-221100-
SOUTHEAST SOUTH DAKOTA

CITY           SKY/WX    TMP DP  RH WIND       PRES   REMARKS
SIOUX FALLS    CLEAR     45  42  89 CALM      30.28R
HURON          CLEAR     45  41  86 SE5       30.24S
CHAMBERLAIN    CLEAR     46  42  88 SE5       30.25S
MITCHELL       CLEAR     43  42  97 SE5       30.26S
YANKTON        CLEAR     46  43  87 CALM      30.29R
$$

ABBREVIATIONS USED IN REMARKS
   TC - TEMPERATURE IN CELSIUS
  WCI - WIND CHILL INDEX
   HX - HEAT INDEX
  VSB - VISIBILITY



USA.gov is the U.S. government's official web portal to all federal, state and local government web resources and services.